KD9BEW Weather Reports


Display with metric or nautical units.
time (UTC)temp
F
wind
direction
speed
MPH
gust
MPH
rain 1hr
in
rain 24hr
in
rain mn
in
humidity
%
barometer
mb
20260906020105 64 0 0.0 1.0 0.00 0.07 0.06 89 1018.4
20260906014612 64 0 0.0 0.0 0.00 0.07 0.06 88 1018.4
20260906013104 64 0 0.0 1.0 0.00 0.07 0.06 88 1018.3
20260906011604 64 0 0.0 0.0 0.00 0.07 0.06 88 1018.1
20260906010119 65 0 0.0 1.0 0.00 0.07 0.06 87 1018.0
20260906004605 66 0 0.0 0.0 0.00 0.07 0.06 86 1018.3
20260906003120 67 0 0.0 2.0 0.00 0.07 0.06 84 1018.2
20260906001608 68 0 0.0 1.0 0.00 0.07 0.06 83 1018.4
20260906000109 69 0 0.0 1.0 0.00 0.07 0.06 80 1018.4
20260905234609 70 0 0.0 3.0 0.00 0.07 0.06 79 1018.4
20260905233104 71 0 0.0 2.0 0.00 0.07 0.06 79 1018.4
20260905231608 72 312 0.0 3.0 0.00 0.07 0.06 80 1018.3
20260905230111 73 53 0.0 2.0 0.00 0.07 0.06 79 1018.2
20260905224605 73 0 0.0 2.0 0.00 0.07 0.06 79 1018.4
20260905223105 74 0 0.0 4.0 0.00 0.07 0.06 81 1018.3
20260905221603 74 53 1.0 4.0 0.00 0.07 0.06 80 1018.4
20260905220106 74 40 1.0 5.0 0.00 0.07 0.06 80 1018.4
20260905214601 75 62 0.0 5.0 0.00 0.07 0.06 80 1018.4
20260905213106 74 0 1.0 4.0 0.00 0.07 0.06 80 1018.4
20260905211606 76 62 1.0 4.0 0.00 0.07 0.06 78 1018.5
20260905210108 75 42 1.0 5.0 0.00 0.07 0.06 80 1018.5
20260905204613 74 0 0.0 2.0 0.00 0.07 0.06 82 1018.7
20260905203102 74 0 0.0 2.0 0.00 0.07 0.06 81 1018.9
20260905201604 74 0 1.0 4.0 0.00 0.07 0.06 80 1019.2
20260905200108 75 333 1.0 4.0 0.00 0.07 0.06 80 1019.1
20260905194601 74 0 0.0 4.0 0.00 0.07 0.06 82 1019.2
20260905193110 73 0 1.0 3.0 0.00 0.07 0.06 83 1019.1
20260905191611 73 26 0.0 2.0 0.00 0.07 0.06 83 1018.8
20260905184611 71 0 0.0 1.0 0.00 0.07 0.06 85 1019.2
20260905183106 71 0 0.0 1.0 0.00 0.07 0.06 86 1019.3
20260905181605 71 348 0.0 1.0 0.00 0.07 0.06 86 1019.2
20260905180107 71 0 0.0 3.0 0.00 0.07 0.06 86 1019.4
20260905174605 71 0 0.0 2.0 0.00 0.07 0.06 86 1019.3
20260905173106 71 22 0.0 2.0 0.00 0.07 0.06 86 1019.7
20260905171603 71 0 0.0 0.0 0.00 0.07 0.06 85 1019.7
20260905170105 71 0 0.0 0.0 0.00 0.07 0.06 84 1019.7
20260905164606 70 0 0.0 0.0 0.00 0.07 0.06 85 1019.7
20260905163111 71 0 0.0 0.0 0.00 0.07 0.06 86 1019.7
20260905161604 70 232 0.0 1.0 0.00 0.07 0.06 87 1019.7
20260905160104 70 0 0.0 2.0 0.00 0.07 0.06 88 1019.7
20260905154606 69 0 0.0 2.0 0.00 0.07 0.06 92 1019.5
20260905153131 68 0 0.0 0.0 0.00 0.07 0.06 93 1019.5
20260905151601 68 0 0.0 0.0 0.00 0.07 0.06 94 1019.2
20260905150104 67 0 0.0 1.0 0.00 0.07 0.06 94 1019.3
20260905144602 67 28 0.0 1.0 0.00 0.07 0.06 94 1019.3
20260905143110 66 0 0.0 1.0 0.00 0.07 0.06 94 1019.1
20260905141602 66 0 0.0 2.0 0.00 0.07 0.06 94 1018.6
20260905140104 66 0 0.0 2.0 0.00 0.07 0.06 94 1018.6
20260905134603 66 0 0.0 3.0 0.00 0.07 0.06 94 1018.4
20260905133105 66 0 0.0 0.0 0.00 0.07 0.06 94 1018.6
20260905131605 65 0 0.0 0.0 0.00 0.07 0.06 94 1018.8
20260905124604 65 0 0.0 0.0 0.01 0.07 0.06 94 1018.6
20260905123110 65 0 0.0 0.0 0.02 0.07 0.06 94 1018.5
20260905121605 64 0 0.0 0.0 0.02 0.07 0.06 94 1018.0
20260905120107 64 0 0.0 0.0 0.01 0.06 0.05 94 1017.9
20260905114601 64 0 0.0 0.0 0.02 0.06 0.05 94 1017.6
20260905113100 64 0 0.0 0.0 0.01 0.05 0.04 94 1017.3
20260905111644 64 0 0.0 0.0 0.01 0.05 0.04 94 1017.1
20260905104558 64 0 0.0 0.0 0.00 0.04 0.03 94 1017.0
20260905103104 64 0 0.0 0.0 0.00 0.04 0.03 94 1016.9
20260905101603 64 0 0.0 0.0 0.00 0.04 0.03 93 1017.2
20260905100107 64 0 0.0 0.0 0.01 0.04 0.03 93 1017.3
20260905094603 64 0 0.0 0.0 0.01 0.04 0.03 93 1017.3
20260905093103 64 0 0.0 0.0 0.01 0.04 0.03 93 1017.3
20260905091604 64 0 0.0 0.0 0.01 0.04 0.03 93 1017.4
20260905090059 64 0 0.0 0.0 0.00 0.03 0.02 93 1017.6
20260905084603 64 0 0.0 0.0 0.00 0.14 0.02 93 1017.7
20260905083104 64 0 0.0 0.0 0.00 0.14 0.02 93 1017.7
20260905081606 64 0 0.0 0.0 0.01 0.14 0.02 93 1017.6
20260905074605 64 0 0.0 0.0 0.01 0.14 0.02 93 1017.4
20260905073104 64 0 0.0 0.0 0.01 0.14 0.02 93 1017.4
20260905071603 64 0 0.0 0.0 0.00 0.13 0.01 93 1017.3
20260905063104 63 0 0.0 0.0 0.00 0.13 0.01 93 1017.2
20260905061612 63 0 0.0 1.0 0.01 0.13 0.01 93 1017.2
20260905060100 64 0 0.0 0.0 0.01 0.13 0.01 93 1017.1
20260905054607 64 0 0.0 1.0 0.01 0.13 0.01 93 1017.0
20260905053104 64 0 0.0 0.0 0.01 0.13 0.01 93 1017.0
20260905051601 64 0 0.0 1.0 0.00 0.12 0.00 93 1017.1
20260905050104 64 0 0.0 0.0 0.00 0.12 0.00 93 1017.0
20260905044607 64 0 0.0 0.0 0.00 0.12 0.12 93 1017.1
20260905043102 64 0 0.0 0.0 0.00 0.12 0.12 93 1017.0
20260905041602 64 0 0.0 1.0 0.00 0.12 0.12 93 1017.0
20260905034607 64 0 0.0 1.0 0.01 0.12 0.12 92 1017.1
20260905033105 64 0 0.0 1.0 0.01 0.12 0.12 92 1017.1
20260905031602 64 0 0.0 1.0 0.01 0.12 0.12 92 1017.3
20260905030123 64 0 0.0 1.0 0.01 0.12 0.12 92 1017.2
20260905024604 65 0 0.0 1.0 0.00 0.11 0.11 92 1017.0
20260905023103 65 0 0.0 1.0 0.00 0.11 0.11 92 1017.0
20260905021604 65 0 0.0 1.0 0.00 0.11 0.11 92 1017.0